User: anonymous   Login
Location: Mt. Stromlo, Australia
(35.3200°S, 149.0080°E)
Time: 09:54:24
(UTC+11:00)
Language:

Molniya-1T - Orbit

View from above orbital plane
View from above orbital plane
View from above satellite
View from above satellite

Ground track
Ground track

The orbit data is extracted from the following two-line orbital elements,

1 24960U 97054A   21299.00952954 -.00000033  00000-0 -28063-2 0  9992
2 24960  63.6199 216.5910 6209956 300.1622  12.7728  3.18687531200531
Epoch (UTC): 26 October 2021 00:13:43
Eccentricity: 0.6209956
inclination: 63.6199°
perigee height: 1014 km
apogee height: 25240 km
right ascension of ascending node: 216.5910°
argument of perigee: 300.1622°
revolutions per day: 3.18687531
mean anomaly at epoch: 12.7728°
orbit number at epoch: 20053

The dashed part of the orbit path shows where the satellite is in the earth's shadow,  

DLR